| time (UTC) | temp C | wind direction | speed KPH | gust KPH | rain 1hr cm | rain 24hr cm | rain mn cm | humidity % | barometer mb |
| 20260507094502 | 4 | 360 | 12.9 | 22.5 | 0.00 | 0.00 | 0.00 | 88 | 1015.5 |
| 20260507093032 | 3 | 360 | 19.3 | 25.7 | 0.00 | 0.00 | 0.00 | 88 | 1015.4 |
| 20260507091609 | 4 | 360 | 19.3 | 30.6 | 0.00 | 0.00 | 0.00 | 88 | 1015.4 |
| 20260507090019 | 4 | 360 | 25.7 | 33.8 | 0.00 | 0.00 | 0.00 | 86 | 1015.4 |
| 20260507084601 | 4 | 360 | 24.1 | 32.2 | 0.00 | 0.00 | 0.00 | 85 | 1015.4 |
| 20260507083104 | 4 | 360 | 20.9 | 32.2 | 0.00 | 0.00 | 0.00 | 87 | 1015.4 |
| 20260507081610 | 5 | 360 | 17.7 | 32.2 | 0.00 | 0.00 | 0.00 | 85 | 1015.2 |
| 20260507080135 | 5 | 360 | 22.5 | 32.2 | 0.00 | 0.00 | 0.00 | 84 | 1014.9 |
| 20260507074604 | 4 | 360 | 20.9 | 32.2 | 0.00 | 0.00 | 0.00 | 85 | 1015.0 |
| 20260507073120 | 5 | 360 | 14.5 | 25.7 | 0.00 | 0.00 | 0.00 | 88 | 1014.9 |
| 20260507071501 | 4 | 360 | 17.7 | 29.0 | 0.00 | 0.00 | 0.00 | 88 | 1014.6 |
| 20260507064601 | 5 | 360 | 22.5 | 30.6 | 0.00 | 0.00 | 0.00 | 84 | 1014.3 |
| 20260507063105 | 5 | 360 | 27.4 | 32.2 | 0.00 | 0.00 | 0.00 | 84 | 1014.3 |
| 20260507061600 | 4 | 360 | 22.5 | 25.7 | 0.00 | 0.00 | 0.00 | 83 | 1014.2 |
| 20260507060114 | 4 | 360 | 19.3 | 24.1 | 0.00 | 0.00 | 0.00 | 83 | 1014.1 |
| 20260507054511 | 4 | 360 | 17.7 | 24.1 | 0.00 | 0.00 | 0.00 | 83 | 1014.0 |
| 20260507053100 | 3 | 360 | 17.7 | 22.5 | 0.00 | 0.00 | 0.00 | 82 | 1013.9 |
| 20260507051601 | 3 | 360 | 14.5 | 20.9 | 0.00 | 0.00 | 0.00 | 83 | 1013.9 |
| 20260507050100 | 3 | 190 | 14.5 | 17.7 | 0.00 | 0.00 | 0.00 | 84 | 1013.9 |
| 20260507044624 | 3 | 360 | 11.3 | 16.1 | 0.00 | 0.00 | 0.00 | 84 | 1013.9 |
| 20260507043111 | 2 | 187 | 12.9 | 17.7 | 0.00 | 0.00 | 0.00 | 84 | 1013.9 |
| 20260507041607 | 2 | 181 | 11.3 | 16.1 | 0.00 | 0.00 | 0.00 | 85 | 1013.8 |
| 20260507040120 | 2 | 186 | 11.3 | 16.1 | 0.00 | 0.00 | 0.00 | 85 | 1013.8 |
| 20260507034606 | 2 | 175 | 8.0 | 11.3 | 0.00 | 0.00 | 0.00 | 86 | 1013.7 |
| 20260507033112 | 2 | 178 | 4.8 | 9.7 | 0.00 | 0.00 | 0.00 | 87 | 1013.6 |
| 20260507031606 | 2 | 175 | 8.0 | 11.3 | 0.00 | 0.00 | 0.00 | 87 | 1013.5 |
| 20260507030012 | 2 | 117 | 6.4 | 9.7 | 0.00 | 0.00 | 0.00 | 87 | 1013.3 |
| 20260507024600 | 2 | 183 | 14.5 | 20.9 | 0.00 | 0.00 | 0.00 | 88 | 1013.3 |
| 20260507023001 | 2 | 176 | 19.3 | 25.7 | 0.00 | 0.00 | 0.00 | 90 | 1013.4 |
| 20260507021504 | 1 | 185 | 9.7 | 17.7 | 0.00 | 0.00 | 0.00 | 89 | 1013.3 |
| 20260507020013 | 1 | 178 | 9.7 | 14.5 | 0.00 | 0.00 | 0.00 | 89 | 1013.2 |
| 20260507014609 | 1 | 178 | 11.3 | 14.5 | 0.00 | 0.00 | 0.00 | 88 | 1013.2 |
| 20260507013101 | 1 | 360 | 8.0 | 12.9 | 0.00 | 0.00 | 0.00 | 87 | 1013.0 |
| 20260507011605 | 1 | 174 | 12.9 | 16.1 | 0.00 | 0.00 | 0.00 | 86 | 1013.0 |
| 20260507010013 | 2 | 360 | 8.0 | 14.5 | 0.00 | 0.00 | 0.00 | 85 | 1012.9 |
| 20260507004601 | 3 | 174 | 11.3 | 20.9 | 0.00 | 0.00 | 0.00 | 84 | 1012.9 |
| 20260507003003 | 4 | 183 | 17.7 | 27.4 | 0.00 | 0.00 | 0.00 | 85 | 1012.7 |
| 20260507001617 | 5 | 360 | 22.5 | 27.4 | 0.00 | 0.00 | 0.00 | 85 | 1012.7 |
| 20260507000002 | 5 | 360 | 19.3 | 27.4 | 0.00 | 0.00 | 0.00 | 85 | 1012.7 |
| 20260506234512 | 5 | 360 | 24.1 | 32.2 | 0.00 | 0.00 | 0.00 | 86 | 1012.6 |
| 20260506231601 | 5 | 360 | 27.4 | 35.4 | 0.00 | 0.00 | 0.00 | 85 | 1012.5 |
| 20260506224602 | 5 | 360 | 25.7 | 35.4 | 0.00 | 0.00 | 0.00 | 86 | 1012.3 |
| 20260506223101 | 4 | 360 | 25.7 | 33.8 | 0.00 | 0.00 | 0.00 | 86 | 1012.2 |
| 20260506221602 | 4 | 360 | 27.4 | 32.2 | 0.00 | 0.00 | 0.00 | 85 | 1012.1 |
| 20260506220109 | 5 | 217 | 25.7 | 30.6 | 0.00 | 0.00 | 0.00 | 84 | 1012.0 |
| 20260506214602 | 5 | 360 | 24.1 | 32.2 | 0.00 | 0.00 | 0.00 | 83 | 1012.0 |
| 20260506213104 | 5 | 215 | 22.5 | 27.4 | 0.00 | 0.00 | 0.00 | 83 | 1011.9 |
| 20260506211501 | 5 | 217 | 20.9 | 27.4 | 0.00 | 0.00 | 0.00 | 83 | 1011.8 |
| 20260506210121 | 5 | 360 | 20.9 | 29.0 | 0.00 | 0.00 | 0.00 | 82 | 1011.8 |
| 20260506204513 | 5 | 360 | 24.1 | 32.2 | 0.00 | 0.00 | 0.00 | 81 | 1011.9 |
| 20260506203012 | 5 | 360 | 22.5 | 30.6 | 0.00 | 0.00 | 0.00 | 81 | 1011.8 |
| 20260506201601 | 5 | 221 | 27.4 | 35.4 | 0.00 | 0.00 | 0.00 | 79 | 1011.7 |
| 20260506200001 | 5 | 360 | 24.1 | 33.8 | 0.00 | 0.00 | 0.00 | 80 | 1011.7 |
| 20260506194512 | 5 | 360 | 22.5 | 29.0 | 0.00 | 0.00 | 0.00 | 80 | 1011.6 |
| 20260506193104 | 5 | 360 | 27.4 | 33.8 | 0.00 | 0.00 | 0.00 | 78 | 1011.4 |
| 20260506191606 | 5 | 360 | 27.4 | 33.8 | 0.00 | 0.00 | 0.00 | 80 | 1011.4 |
| 20260506190001 | 5 | 360 | 29.0 | 35.4 | 0.00 | 0.00 | 0.00 | 80 | 1011.3 |
| 20260506184603 | 5 | 360 | 27.4 | 32.2 | 0.00 | 0.00 | 0.00 | 81 | 1011.2 |
| 20260506183112 | 5 | 360 | 27.4 | 35.4 | 0.00 | 0.00 | 0.00 | 82 | 1011.1 |
| 20260506181604 | 5 | 360 | 30.6 | 37.0 | 0.00 | 0.00 | 0.00 | 82 | 1011.0 |
| 20260506180003 | 5 | 360 | 25.7 | 32.2 | 0.00 | 0.00 | 0.00 | 83 | 1011.0 |
| 20260506174502 | 5 | 217 | 25.7 | 33.8 | 0.00 | 0.00 | 0.00 | 81 | 1010.9 |
| 20260506173002 | 5 | 360 | 25.7 | 35.4 | 0.00 | 0.00 | 0.00 | 80 | 1010.8 |
| 20260506171506 | 5 | 360 | 29.0 | 35.4 | 0.00 | 0.00 | 0.00 | 81 | 1010.7 |
| 20260506170001 | 5 | 360 | 29.0 | 35.4 | 0.00 | 0.00 | 0.00 | 82 | 1010.6 |
| 20260506164514 | 5 | 360 | 27.4 | 35.4 | 0.00 | 0.00 | 0.00 | 82 | 1010.5 |
| 20260506163003 | 5 | 360 | 30.6 | 37.0 | 0.00 | 0.00 | 0.00 | 84 | 1010.5 |
| 20260506161515 | 5 | 360 | 32.2 | 37.0 | 0.00 | 0.00 | 0.00 | 84 | 1010.5 |
| 20260506160110 | 5 | 360 | 29.0 | 35.4 | 0.00 | 0.00 | 0.00 | 84 | 1010.4 |
| 20260506154527 | 5 | 360 | 30.6 | 40.2 | 0.00 | 0.00 | 0.00 | 84 | 1010.4 |
| 20260506153011 | 5 | 360 | 29.0 | 40.2 | 0.00 | 0.00 | 0.00 | 83 | 1010.2 |
| 20260506151514 | 5 | 360 | 29.0 | 35.4 | 0.00 | 0.00 | 0.00 | 83 | 1010.2 |
| 20260506150004 | 5 | 360 | 25.7 | 32.2 | 0.00 | 0.00 | 0.00 | 82 | 1010.3 |
| 20260506144502 | 5 | 360 | 29.0 | 33.8 | 0.00 | 0.00 | 0.00 | 81 | 1010.3 |
| 20260506143102 | 5 | 360 | 29.0 | 35.4 | 0.00 | 0.00 | 0.00 | 80 | 1010.2 |
| 20260506141502 | 5 | 360 | 27.4 | 35.4 | 0.00 | 0.00 | 0.00 | 80 | 1010.2 |
| 20260506140019 | 5 | 360 | 19.3 | 27.4 | 0.00 | 0.00 | 0.00 | 82 | 1010.1 |
| 20260506134602 | 5 | 360 | 20.9 | 29.0 | 0.00 | 0.00 | 0.00 | 82 | 1010.2 |
| 20260506133103 | 5 | 360 | 29.0 | 33.8 | 0.00 | 0.00 | 0.00 | 80 | 1009.9 |
| 20260506131502 | 4 | 360 | 24.1 | 32.2 | 0.00 | 0.00 | 0.00 | 82 | 1009.9 |
| 20260506130103 | 4 | 360 | 25.7 | 35.4 | 0.00 | 0.00 | 0.00 | 83 | 1009.8 |
| 20260506124503 | 4 | 360 | 30.6 | 37.0 | 0.00 | 0.00 | 0.00 | 83 | 1009.7 |
| 20260506123007 | 4 | 360 | 25.7 | 33.8 | 0.00 | 0.00 | 0.00 | 84 | 1009.6 |
| 20260506121502 | 3 | 360 | 25.7 | 35.4 | 0.00 | 0.00 | 0.00 | 85 | 1009.6 |
| 20260506120003 | 3 | 360 | 29.0 | 37.0 | 0.00 | 0.00 | 0.00 | 84 | 1009.3 |
| 20260506114602 | 3 | 360 | 30.6 | 35.4 | 0.00 | 0.00 | 0.00 | 84 | 1009.3 |
| 20260506113012 | 3 | 360 | 27.4 | 33.8 | 0.00 | 0.00 | 0.00 | 85 | 1009.1 |
| 20260506111525 | 3 | 360 | 30.6 | 37.0 | 0.00 | 0.00 | 0.00 | 85 | 1008.9 |
| 20260506110013 | 3 | 360 | 29.0 | 37.0 | 0.00 | 0.00 | 0.00 | 85 | 1008.7 |
| 20260506104502 | 3 | 360 | 29.0 | 37.0 | 0.00 | 0.00 | 0.00 | 84 | 1008.5 |
| 20260506103106 | 3 | 360 | 32.2 | 40.2 | 0.00 | 0.00 | 0.00 | 83 | 1008.4 |
| 20260506101502 | 3 | 360 | 29.0 | 37.0 | 0.00 | 0.00 | 0.00 | 83 | 1008.2 |